This is the latest recevied weather packets stored in our database for station/object SP9KB-13. If no packets are shown the sender has not sent any weather packets the latest 1 day(s).
| Time | Temp. | Humidity | Pressure | Rain* | Wind** | Luminosity | Snow |
|---|---|---|---|---|---|---|---|
| 1777970462 | 21.11° C | 39% | 994.5 hPa | 0 mm | 0.45 m/s, 169° | - | - |
| 1777970161 | 20.56° C | 39% | 994.7 hPa | 0 mm | 2.68 m/s, 224° | - | - |
| 1777969861 | 20.56° C | 39% | 994.7 hPa | 0 mm | 1.79 m/s, 231° | - | - |
| 1777969560 | 20.56° C | 40% | 994.7 hPa | 0 mm | 1.34 m/s, 241° | - | - |
| 1777969260 | 20° C | 41% | 994.6 hPa | 0 mm | 0.89 m/s, 249° | - | - |
| 1777968959 | 20° C | 41% | 994.9 hPa | 0 mm | 0.89 m/s, 240° | - | - |
| 1777968658 | 20° C | 40% | 994.7 hPa | 0 mm | 0.89 m/s, 236° | - | - |
| 1777968358 | 20° C | 41% | 994.8 hPa | 0 mm | 0.89 m/s, 229° | - | - |
| 1777968057 | 19.44° C | 41% | 994.8 hPa | 0 mm | 1.34 m/s, 188° | - | - |
| 1777967757 | 19.44° C | 42% | 994.9 hPa | 0 mm | 0.45 m/s, 170° | - | - |
| 1777967456 | 18.89° C | 41% | 995 hPa | 0 mm | 1.34 m/s, 223° | - | - |
| 1777967155 | 18.33° C | 43% | 995.1 hPa | 0 mm | 0.45 m/s, 213° | - | - |
| 1777966855 | 18.89° C | 41% | 995 hPa | 0 mm | 0.89 m/s, 238° | - | - |
| 1777966554 | 18.89° C | 41% | 995.2 hPa | 0 mm | 0.89 m/s, 193° | - | - |
| 1777966254 | 18.33° C | 44% | 995.1 hPa | 0 mm | 0.45 m/s, 110° | - | - |
| 1777965953 | 18.33° C | 43% | 995.3 hPa | 0 mm | 0.89 m/s, 104° | - | - |
| 1777965652 | 18.89° C | 42% | 995.2 hPa | 0 mm | 0.45 m/s, 180° | - | - |
| 1777965352 | 18.33° C | 43% | 995.2 hPa | 0 mm | 0.45 m/s, 188° | - | - |
| 1777965051 | 17.78° C | 44% | 995.4 hPa | 0 mm | 0.45 m/s, 96° | - | - |
| 1777964751 | 17.22° C | 44% | 995.5 hPa | 0 mm | 0.89 m/s, 246° | - | - |
| 1777964450 | 17.22° C | 44% | 995.4 hPa | 0 mm | 0.89 m/s, 123° | - | - |
| 1777964149 | 17.78° C | 44% | 995.5 hPa | 0 mm | 0.89 m/s, 225° | - | - |
| 1777963849 | 17.22° C | 44% | 995.3 hPa | 0 mm | 0.45 m/s, 222° | - | - |
| 1777963548 | 16.67° C | 46% | 995.5 hPa | 0 mm | 0 m/s | - | - |
| 1777963248 | 16.67° C | 44% | 995.7 hPa | 0 mm | 1.79 m/s, 229° | - | - |
* Rain latest hour (hover to see other rain measurements)
** Current wind speed in m/s (hover to see current wind gust speed)